H1 CPF 2 NER 2024 4 26 9 117 01 glonass145 H2 2213001 9145 54031 2024 4 26 0 0 0 2024 4 29 23 45 0 900 1 1 0 0 0 1 H9 10 0 60426 0.00000 0 11200212.124 -21240577.609 8584077.684 10 0 60426 900.00000 0 11593872.620 -22029967.693 5525328.827 10 0 60426 1800.00000 0 11727599.249 -22519871.213 2359141.242 10 0 60426 2700.00000 0 11641279.745 -22671282.897 -852922.685 10 0 60426 3600.00000 0 11382557.576 -22456098.261 -4048400.938 10 0 60426 4500.00000 0 11004591.349 -21858413.475 -7165152.470 10 0 60426 5400.00000 0 10563591.274 -20875329.070 -10142571.624 10 0 60426 6300.00000 0 10116237.946 -19517222.839 -12922771.984 10 0 60426 7200.00000 0 9717093.597 -17807479.840 -15451715.905 10 0 60426 8100.00000 0 9416116.149 -15781690.417 -17680267.302 10 0 60426 9000.00000 0 9256381.820 -13486349.535 -19565146.993 10 0 60426 9900.00000 0 9272112.959 -10977111.725 -21069772.011 10 0 60426 10800.00000 0 9487094.629 -8316674.412 -22164962.905 10 0 60426 11700.00000 0 9913546.821 -5572377.777 -22829505.742 10 0 60426 12600.00000 0 10551499.852 -2813620.904 -23050558.514 10 0 60426 13500.00000 0 11388699.171 -109201.323 -22823894.706 10 0 60426 14400.00000 0 12401043.609 2475312.096 -22153979.891 10 0 60426 15300.00000 0 13553538.667 4880064.468 -21053880.354 10 0 60426 16200.00000 0 14801724.952 7053156.233 -19545005.829 10 0 60426 17100.00000 0 16093521.979 8952548.534 -17656691.470 10 0 60426 18000.00000 0 17371410.212 10547554.669 -15425627.158 10 0 60426 18900.00000 0 18574860.002 11819856.954 -12895145.048 10 0 60426 19800.00000 0 19642905.705 12764008.034 -10114378.947 10 0 60426 20700.00000 0 20516757.069 13387397.149 -7137311.607 10 0 60426 21600.00000 0 21142338.253 13709684.165 -4021728.212 10 0 60426 22500.00000 0 21472647.786 13761726.374 -828096.201 10 0 60426 23400.00000 0 21469840.086 13584044.282 2381606.856 10 0 60426 24300.00000 0 21106940.791 13224891.879 5545094.565 10 0 60426 25200.00000 0 20369123.370 12738013.425 8600978.882 10 0 60426 26100.00000 0 19254492.874 12180181.868 11489959.601 10 0 60426 27000.00000 0 17774343.242 11608623.141 14155973.071 10 0 60426 27900.00000 0 15952876.648 11078435.170 16547277.955 10 0 60426 28800.00000 0 13826395.744 10640110.626 18617457.054 10 0 60426 29700.00000 0 11442001.665 10337267.924 20326316.061 10 0 60426 30600.00000 0 8855851.153 10204686.127 21640662.115 10 0 60426 31500.00000 0 6131044.408 10266726.657 22534947.393 10 0 60426 32400.00000 0 3335230.568 10536208.454 22991765.566 10 0 60426 33300.00000 0 538029.322 11013784.276 23002191.708 10 0 60426 34200.00000 0 -2191625.183 11687844.884 22565959.061 10 0 60426 35100.00000 0 -4788108.746 12534955.861 21691469.126 10 0 60426 36000.00000 0 -7191591.720 13520809.507 20395634.465 10 0 60426 36900.00000 0 -9350281.251 14601652.665 18703556.763 10 0 60426 37800.00000 0 -11222328.588 15726131.284 16648045.698 10 0 60426 38700.00000 0 -12777322.614 16837474.849 14268987.251 10 0 60426 39600.00000 0 -13997307.802 17875929.240 11612573.054 10 0 60426 40500.00000 0 -14877284.644 18781335.766 8730405.212 10 0 60426 41400.00000 0 -15425172.156 19495747.648 5678493.665 10 0 60426 42300.00000 0 -15661234.720 19965973.170 2516165.561 10 0 60426 43200.00000 0 -15616998.149 20145937.604 -695091.946 10 0 60426 44100.00000 0 -15333701.504 19998763.330 -3892832.483 10 0 60426 45000.00000 0 -14860350.945 19498479.428 -7014870.758 10 0 60426 45900.00000 0 -14251458.836 18631287.590 -10000497.869 10 0 60426 46800.00000 0 -13564564.635 17396330.040 -12791667.209 10 0 60426 47700.00000 0 -12857643.322 15805926.239 -15334127.177 10 0 60426 48600.00000 0 -12186511.693 13885267.735 -17578478.203 10 0 60426 49500.00000 0 -11602342.741 11671583.318 -19481133.289 10 0 60426 50400.00000 0 -11149393.458 9212809.057 -21005163.401 10 0 60426 51300.00000 0 -10863042.084 6565818.429 -22121011.564 10 0 60426 52200.00000 0 -10768217.513 3794286.063 -22807062.260 10 0 60426 53100.00000 0 -10878286.782 966273.794 -23050055.670 10 0 60426 54000.00000 0 -11194447.149 -1848360.998 -22845339.347 10 0 60426 54900.00000 0 -11705647.967 -4580627.617 -22196953.063 10 0 60426 55800.00000 0 -12389045.317 -7165024.929 -21117545.637 10 0 60426 56700.00000 0 -13210970.019 -9542016.873 -19628125.708 10 0 60426 57600.00000 0 -14128368.202 -11660258.794 -17757651.424 10 0 60426 58500.00000 0 -15090653.807 -13478483.203 -15542467.001 10 0 60426 59400.00000 0 -16041895.205 -14966967.730 -13025596.921 10 0 60426 60300.00000 0 -16923244.031 -16108525.446 -10255911.248 10 0 60426 61200.00000 0 -17675504.137 -16898977.513 -7287178.013 10 0 60426 62100.00000 0 -18241732.584 -17347089.699 -4177020.863 10 0 60426 63000.00000 0 -18569763.120 -17473976.655 -985802.004 10 0 60426 63900.00000 0 -18614545.732 -17312000.045 2224547.861 10 0 60426 64800.00000 0 -18340203.480 -16903207.778 5391729.946 10 0 60426 65700.00000 0 -17721719.583 -16297380.803 8454284.766 10 0 60426 66600.00000 0 -16746183.218 -15549770.303 11352782.990 10 0 60426 67500.00000 0 -15413540.932 -14718621.016 14030976.645 10 0 60426 68400.00000 0 -13736821.256 -13862585.263 16436888.411 10 0 60426 69300.00000 0 -11741822.117 -13038136.735 18523817.987 10 0 60426 70200.00000 0 -9466273.024 -12297092.895 20251246.302 10 0 60426 71100.00000 0 -6958505.854 -11684350.197 21585620.335 10 0 60426 72000.00000 0 -4275688.454 -11235927.292 22501003.669 10 0 60426 72900.00000 0 -1481693.399 -10977398.427 22979580.468 10 0 60426 73800.00000 0 1355310.706 -10922782.877 23012003.311 10 0 60426 74700.00000 0 4165446.389 -11073937.245 22597578.164 10 0 60426 75600.00000 0 6879786.564 -11420476.416 21744282.752 10 0 60426 76500.00000 0 9432976.386 -11940226.902 20468617.617 10 0 60426 77400.00000 0 11765709.538 -12600194.036 18795292.188 10 0 60426 78300.00000 0 13826956.640 -13358002.841 16756751.309 10 0 60426 79200.00000 0 15575853.583 -14163752.456 14392550.663 10 0 60426 80100.00000 0 16983171.415 -14962206.326 11748592.583 10 0 60426 81000.00000 0 18032306.855 -15695226.025 8876236.548 10 0 60426 81900.00000 0 18719752.361 -16304345.917 5831301.316 10 0 60426 82800.00000 0 19055026.539 -16733379.601 2672978.070 10 0 60426 83700.00000 0 19060068.384 -16930947.405 -537324.080 10 0 60426 84600.00000 0 18768121.580 -16852817.322 -3737177.325 10 0 60426 85500.00000 0 18222156.655 -16463959.427 -6864355.068 10 0 60427 0.00000 0 17472898.555 -15740226.048 -9858047.785 10 0 60427 900.00000 0 16576543.374 -14669585.191 -12660051.981 10 0 60427 1800.00000 0 15592262.605 -13252855.248 -15215904.410 10 0 60427 2700.00000 0 14579599.723 -11503907.812 -17475944.385 10 0 60427 3600.00000 0 13595870.552 -9449330.158 -19396279.212 10 0 60427 4500.00000 0 12693677.097 -7127560.510 -20939635.614 10 0 60427 5400.00000 0 11918639.798 -4587531.774 -22076080.573 10 0 60427 6300.00000 0 11307443.568 -1886879.834 -22783598.101 10 0 60427 7200.00000 0 10886279.503 910209.340 -23048511.275 10 0 60427 8100.00000 0 10669747.211 3735424.658 -22865742.029 10 0 60427 9000.00000 0 10660263.269 6518926.728 -22238904.242 10 0 60427 9900.00000 0 10847999.972 9192009.260 -21180228.802 10 0 60427 10800.00000 0 11211356.273 11689715.292 -19710322.443 10 0 60427 11700.00000 0 11717940.583 13953300.494 -17857765.163 10 0 60427 12600.00000 0 12326023.634 15932442.083 -15658554.049 10 0 60427 13500.00000 0 12986400.009 17587102.563 -13155404.141 10 0 60427 14400.00000 0 13644579.739 18888971.764 -10396919.684 10 0 60427 15300.00000 0 14243217.575 19822428.158 -7436651.621 10 0 60427 16200.00000 0 14724677.444 20384980.422 -4332059.426 10 0 60427 17100.00000 0 15033623.865 20587171.856 -1143397.232 10 0 60427 18000.00000 0 15119530.891 20451952.660 2067454.126 10 0 60427 18900.00000 0 14939002.485 20013547.336 5238186.510 10 0 60427 19800.00000 0 14457806.109 19315865.522 8307272.013 10 0 60427 20700.00000 0 13652533.292 18410523.690 11215155.102 10 0 60427 21600.00000 0 12511816.562 17354561.345 13905406.224 10 0 60427 22500.00000 0 11037050.667 16207948.021 16325814.614 10 0 60427 23400.00000 0 9242586.794 15030986.046 18429399.162 10 0 60427 24300.00000 0 7155390.440 13881718.168 20175318.050 10 0 60427 25200.00000 0 4814175.932 12813448.859 21529659.823 10 0 60427 26100.00000 0 2268052.395 11872483.098 22466100.859 10 0 60427 27000.00000 0 -425263.814 11096177.337 22966416.823 10 0 60427 27900.00000 0 -3201597.181 10511384.149 23020838.394 10 0 60427 28800.00000 0 -5992733.594 10133355.653 22628244.378 10 0 60427 29700.00000 0 -8729014.007 9965151.622 21796188.350 10 0 60427 30600.00000 0 -11341994.513 9997577.141 20540757.922 10 0 60427 31500.00000 0 -13767063.129 10209652.555 18886268.847 10 0 60427 32400.00000 0 -15945905.150 10569596.089 16864799.234 10 0 60427 33300.00000 0 -17828714.971 11036278.043 14515572.154 10 0 60427 34200.00000 0 -19376062.480 11561085.387 11884198.012 10 0 60427 35100.00000 0 -20560336.356 12090118.181 9021790.818 10 0 60427 36000.00000 0 -21366704.126 12566624.926 5983975.183 10 0 60427 36900.00000 0 -21793548.971 12933573.571 2829803.332 10 0 60427 37800.00000 0 -21852365.287 13136248.868 -379396.643 10 0 60427 38700.00000 0 -21567117.848 13124765.389 -3581218.409 10 0 60427 39600.00000 0 -20973092.113 12856388.920 -6713396.899 10 0 60427 40500.00000 0 -20115284.883 12297566.954 -9715025.222 10 0 60427 41400.00000 0 -19046403.923 11425581.335 -12527744.506 10 0 60427 42300.00000 0 -17824561.754 10229752.175 -15096882.820 10 0 60427 43200.00000 0 -16510761.602 8712141.204 -17372520.523 10 0 60427 44100.00000 0 -15166282.091 6887724.014 -19310461.082 10 0 60427 45000.00000 0 -13850071.236 4784023.087 -20873088.455 10 0 60427 45900.00000 0 -12616259.565 2440216.234 -22030094.672 10 0 60427 46800.00000 0 -11511896.767 -94242.946 -22759063.924 10 0 60427 47700.00000 0 -10575006.598 -2761435.629 -23045902.408 10 0 60427 48600.00000 0 -9833040.994 -5497144.481 -22885106.218 10 0 60427 49500.00000 0 -9301797.471 -8233286.988 -22279862.700 10 0 60427 50400.00000 0 -8984844.251 -10900514.862 -21241983.770 10 0 60427 51300.00000 0 -8873476.263 -13430872.190 -19791672.839 10 0 60427 52200.00000 0 -8947202.910 -15760402.660 -17957130.020 10 0 60427 53100.00000 0 -9174746.241 -17831598.256 -15774003.264 10 0 60427 54000.00000 0 -9515506.862 -19595588.440 -13284695.977 10 0 60427 54900.00000 0 -9921435.301 -21013979.554 -10537544.262 10 0 60427 55800.00000 0 -10339229.589 -22060268.622 -7585879.605 10 0 60427 56700.00000 0 -10712766.056 -22720773.438 -4486994.922 10 0 60427 57600.00000 0 -10985660.559 -22995040.918 -1301033.907 10 0 60427 58500.00000 0 -11103851.754 -22895717.436 1910174.806 10 0 60427 59400.00000 0 -11018097.091 -22447887.335 5084316.057 10 0 60427 60300.00000 0 -10686275.796 -21687908.026 8159795.830 10 0 60427 61200.00000 0 -10075401.171 -20661791.093 11076934.682 10 0 60427 62100.00000 0 -9163256.765 -19423197.823 13779123.749 10 0 60427 63000.00000 0 -7939586.684 -18031133.544 16213920.982 10 0 60427 63900.00000 0 -6406789.009 -16547437.677 18334066.482 10 0 60427 64800.00000 0 -4580082.053 -15034174.761 20098397.485 10 0 60427 65700.00000 0 -2487135.155 -13551035.663 21472645.612 10 0 60427 66600.00000 0 -167178.016 -12152857.590 22430101.217 10 0 60427 67500.00000 0 2330375.719 -10887366.418 22952132.292 10 0 60427 68400.00000 0 4947734.848 -9793235.448 23028548.066 10 0 60427 69300.00000 0 7620893.145 -8898541.484 22657800.282 10 0 60427 70200.00000 0 10282059.474 -8219682.511 21847018.118 10 0 60427 71100.00000 0 12862255.621 -7760802.008 20611875.701 10 0 60427 72000.00000 0 15293974.744 -7513743.841 18976294.268 10 0 60427 72900.00000 0 17513790.570 -7458539.423 16971984.062 10 0 60427 73800.00000 0 19464809.195 -7564406.570 14637834.145 10 0 60427 74700.00000 0 21098861.494 -7791217.861 12019161.305 10 0 60427 75600.00000 0 22378344.737 -8091376.417 9166832.091 10 0 60427 76500.00000 0 23277636.412 -8412019.619 6136274.682 10 0 60427 77400.00000 0 23784021.000 -8697457.201 2986399.777 10 0 60427 78300.00000 0 23898090.898 -8891739.931 -221548.342 10 0 60427 79200.00000 0 23633604.790 -8941249.392 -3425187.760 10 0 60427 80100.00000 0 23016809.765 -8797198.232 -6562217.945 10 0 60427 81000.00000 0 22085256.147 -8417934.006 -9571637.328 10 0 60427 81900.00000 0 20886155.569 -7770947.976 -12394935.030 10 0 60427 82800.00000 0 19474352.125 -6834502.855 -14977232.788 10 0 60427 83700.00000 0 17909992.680 -5598809.666 -17268354.394 10 0 60427 84600.00000 0 16255994.976 -4066703.091 -19223801.593 10 0 60427 85500.00000 0 14575420.445 -2253785.955 -20805617.425 10 0 60428 0.00000 0 12928862.444 -188036.136 -21983120.411 10 0 60428 900.00000 0 11371958.550 2091109.577 -22733496.341 10 0 60428 1800.00000 0 9953133.093 4534154.261 -23042235.256 10 0 60428 2700.00000 0 8711660.905 7083368.225 -22903407.894 10 0 60428 3600.00000 0 7676134.673 9674966.793 -22319775.159 10 0 60428 4500.00000 0 6863398.131 12241549.515 -21302729.689 10 0 60428 5400.00000 0 6277988.674 14714699.827 -19872070.888 10 0 60428 6300.00000 0 5912111.524 17027637.740 -18055617.908 10 0 60428 7200.00000 0 5746145.334 19117815.828 -15888668.143 10 0 60428 8100.00000 0 5749656.885 20929351.190 -13413311.570 10 0 60428 9000.00000 0 5882881.279 22415192.768 -10677614.036 10 0 60428 9900.00000 0 6098604.527 23538934.279 -7734685.125 10 0 60428 10800.00000 0 6344368.573 24276197.755 -4641648.489 10 0 60428 11700.00000 0 6564905.226 24615530.487 -1458534.444 10 0 60428 12600.00000 0 6704695.869 24558778.415 1752883.667 10 0 60428 13500.00000 0 6710548.439 24120920.883 4930286.812 10 0 60428 14400.00000 0 6534082.479 23329374.157 8012018.005 10 0 60428 15300.00000 0 6134016.861 22222793.297 10938276.930 10 0 60428 16200.00000 0 5478163.109 20849422.922 13652278.270 10 0 60428 17100.00000 0 4545039.570 19265066.195 16101351.353 10 0 60428 18000.00000 0 3325037.618 17530757.161 18237959.884 10 0 60428 18900.00000 0 1821089.814 15710233.894 20020622.267 10 0 60428 19800.00000 0 48810.716 13867317.935 21414715.004 10 0 60428 20700.00000 0 -1963896.902 12063309.333 22393143.881 10 0 60428 21600.00000 0 -4177755.495 10354505.732 22936870.285 10 0 60428 22500.00000 0 -6543509.270 8789948.641 23035282.629 10 0 60428 23400.00000 0 -9003747.087 7409490.539 22686405.746 10 0 60428 24300.00000 0 -11495077.251 6242263.022 21896944.049 10 0 60428 25200.00000 0 -13950564.960 5305609.499 20682157.271 10 0 60428 26100.00000 0 -16302331.966 4604526.656 19065570.669 10 0 60428 27000.00000 0 -18484211.020 4131637.633 17078524.650 10 0 60428 27900.00000 0 -20434344.982 3867697.631 14759571.830 10 0 60428 28800.00000 0 -22097622.434 3782610.324 12153732.574 10 0 60428 29700.00000 0 -23427848.063 3836911.869 9311622.895 10 0 60428 30600.00000 0 -24389556.897 3983659.427 6288471.315 10 0 60428 31500.00000 0 -24959396.166 4170643.898 3143043.725 10 0 60428 32400.00000 0 -25127016.573 4342832.567 -63502.657 10 0 60428 33300.00000 0 -24895435.406 4444937.446 -3268813.505 10 0 60428 34200.00000 0 -24280856.203 4423999.607 -6410555.861 10 0 60428 35100.00000 0 -23311952.712 4231878.968 -9427636.388 10 0 60428 36000.00000 0 -22028647.584 3827543.057 -12261394.921 10 0 60428 36900.00000 0 -20480437.652 3179056.763 -14856749.378 10 0 60428 37800.00000 0 -18724336.754 2265187.947 -17163269.219 10 0 60428 38700.00000 0 -16822523.048 1076560.131 -19136156.354 10 0 60428 39600.00000 0 -14839790.036 -383697.227 -20737114.363 10 0 60428 40500.00000 0 -12840908.434 -2099829.054 -21935089.409 10 0 60428 41400.00000 0 -10888009.378 -4043871.395 -22706868.917 10 0 60428 42300.00000 0 -9038098.223 -6176587.824 -23037526.949 10 0 60428 43200.00000 0 -7340802.282 -8448887.042 -22920708.289 10 0 60428 44100.00000 0 -5836445.768 -10803663.183 -22358746.325 10 0 60428 45000.00000 0 -4554531.276 -13177982.686 -21362612.919 10 0 60428 45900.00000 0 -3512689.974 -15505527.239 -19951701.588 10 0 60428 46800.00000 0 -2716142.985 -17719191.693 -18153448.362 10 0 60428 47700.00000 0 -2157695.109 -19753729.284 -16002797.681 10 0 60428 48600.00000 0 -1818259.743 -21548334.511 -13541523.570 10 0 60428 49500.00000 0 -1667891.700 -23049056.529 -10817419.023 10 0 60428 50400.00000 0 -1667283.402 -24210942.801 -7883369.141 10 0 60428 51300.00000 0 -1769660.508 -24999823.905 -4796325.778 10 0 60428 52200.00000 0 -1922996.319 -25393665.292 -1616203.441 10 0 60428 53100.00000 0 -2072450.889 -25383429.731 1595282.154 10 0 60428 54000.00000 0 -2162931.337 -24973414.662 4775810.330 10 0 60428 54900.00000 0 -2141664.776 -24181050.534 7863663.266 10 0 60428 55800.00000 0 -1960674.721 -23036168.780 10798921.822 10 0 60428 56700.00000 0 -1579055.952 -21579770.213 13524626.181 10 0 60428 57600.00000 0 -964951.273 -19862345.436 15987878.865 10 0 60428 58500.00000 0 -97146.158 -17941817.523 18140868.837 10 0 60428 59400.00000 0 1033786.695 -15881192.818 19941797.108 10 0 60428 60300.00000 0 2424842.051 -13746017.731 21355686.221 10 0 60428 61200.00000 0 4060464.373 -11601747.333 22355058.250 10 0 60428 62100.00000 0 5912963.904 -9511135.024 22920468.493 10 0 60428 63000.00000 0 7943450.688 -7531751.571 23040884.730 10 0 60428 63900.00000 0 10103249.048 -5713736.303 22713904.735 10 0 60428 64800.00000 0 12335734.938 -4097873.629 21945807.702 10 0 60428 65700.00000 0 14578520.963 -2714074.433 20751438.239 10 0 60428 66600.00000 0 16765899.068 -1580325.136 19153924.645 10 0 60428 67500.00000 0 18831439.931 -702147.797 17184236.282 10 0 60428 68400.00000 0 20710641.221 -72593.216 14880587.895 10 0 60428 69300.00000 0 22343514.352 327233.196 12287701.778 10 0 60428 70200.00000 0 23677001.616 527135.506 9455941.540 10 0 60428 71100.00000 0 24667122.263 566325.565 6440333.936 10 0 60428 72000.00000 0 25280757.171 491519.571 3299497.730 10 0 60428 72900.00000 0 25496996.775 354714.141 94500.563 10 0 60428 73800.00000 0 25307995.177 210736.830 -3112333.478 10 0 60428 74700.00000 0 24719294.213 114675.798 -6258641.723 10 0 60428 75600.00000 0 23749603.652 119298.548 -9283241.741 10 0 60428 76500.00000 0 22430046.769 272570.091 -12127326.662 10 0 60428 77400.00000 0 20802903.186 615376.718 -14735612.973 10 0 60428 78300.00000 0 18919902.082 1179552.618 -17057417.992 10 0 60428 79200.00000 0 16840137.748 1986293.684 -19047645.749 10 0 60428 80100.00000 0 14627695.265 3045026.245 -20667662.092 10 0 60428 81000.00000 0 12349085.918 4352779.143 -21886042.241 10 0 60428 81900.00000 0 10070599.650 5894086.235 -22679176.730 10 0 60428 82800.00000 0 7855684.974 7641424.059 -23031724.516 10 0 60428 83700.00000 0 5762465.226 9556166.918 -22936905.140 10 0 60428 84600.00000 0 3841493.937 11590020.035 -22396624.843 10 0 60428 85500.00000 0 2133841.955 13686871.465 -21421434.701 10 0 60429 0.00000 0 669594.906 15784985.817 -20030322.082 10 0 60429 900.00000 0 -533178.463 17819449.947 -18250338.821 10 0 60429 1800.00000 0 -1468943.583 19724766.258 -16116075.285 10 0 60429 2700.00000 0 -2144685.498 21437489.613 -13668987.919 10 0 60429 3600.00000 0 -2579362.549 22898795.365 -10956594.878 10 0 60429 4500.00000 0 -2802853.385 24056872.666 -8031554.456 10 0 60429 5400.00000 0 -2854442.667 24869043.077 -4950644.109 10 0 60429 6300.00000 0 -2780910.205 25303516.025 -1773659.697 10 0 60429 7200.00000 0 -2634304.954 25340707.723 1437743.681 10 0 60429 8100.00000 0 -2469498.462 24974068.370 4621246.800 10 0 60429 9000.00000 0 -2341621.638 24210382.990 7715074.109 10 0 60429 9900.00000 0 -2303493.567 23069533.217 10659190.699 10 0 60429 10800.00000 0 -2403151.379 21583729.928 13396465.196 10 0 60429 11700.00000 0 -2681585.898 19796248.640 15873776.098 10 0 60429 12600.00000 0 -3170779.073 17759720.319 18043040.204 10 0 60429 13500.00000 0 -3892126.513 15534048.683 19862143.458 10 0 60429 14400.00000 0 -4855312.303 13184040.496 21295756.500 10 0 60429 15300.00000 0 -6057684.314 10776847.189 22316019.419 10 0 60429 16200.00000 0 -7484157.369 8379323.785 22903082.784 10 0 60429 17100.00000 0 -9107649.618 6055414.449 23045494.669 10 0 60429 18000.00000 0 -10890035.209 3863672.789 22740426.232 10 0 60429 18900.00000 0 -12783574.851 1855019.415 21993731.364 10 0 60429 19800.00000 0 -14732765.837 70829.372 20819838.883 10 0 60429 20700.00000 0 -16676535.422 -1458571.503 19241478.895 10 0 60429 21600.00000 0 -18550686.901 -2714939.288 17289247.913 10 0 60429 22500.00000 0 -20290496.838 -3692631.238 15001020.491 10 0 60429 23400.00000 0 -21833355.151 -4398590.540 12421218.084 10 0 60429 24300.00000 0 -23121337.570 -4851797.897 9599948.784 10 0 60429 25200.00000 0 -24103602.409 -5082213.710 6592034.240 10 0 60429 26100.00000 0 -24738510.600 -5129256.221 3455942.603 10 0 60429 27000.00000 0 -24995379.320 -5039880.685 252648.426 10 0 60429 27900.00000 0 -24855794.877 -4866341.718 -2955557.916 10 0 60429 28800.00000 0 -24314428.945 -4663734.459 -6106287.408 10 0 60429 29700.00000 0 -23379323.347 -4487419.742 -9138271.764 10 0 60429 30600.00000 0 -22071631.054 -4390443.346 -11992560.456 10 0 60429 31500.00000 0 -20424824.090 -4421059.624 -14613671.377 10 0 60429 32400.00000 0 -18483401.651 -4620465.249 -16950672.228 10 0 60429 33300.00000 0 -16301152.719 -5020839.717 -18958171.321 10 0 60429 34200.00000 0 -13939046.136 -5643776.084 -20597198.469 10 0 60429 35100.00000 0 -11462836.554 -6499168.706 -21835959.109 10 0 60429 36000.00000 0 -8940486.250 -7584605.334 -22650447.438 10 0 60429 36900.00000 0 -6439510.245 -8885289.585 -23024907.256 10 0 60429 37800.00000 0 -4024354.946 -10374497.450 -22952132.196 10 0 60429 38700.00000 0 -1753918.789 -12014549.159 -22433600.127 10 0 60429 39600.00000 0 320682.771 -13758256.126 -21479439.631 10 0 60429 40500.00000 0 2158016.088 -15550782.871 -20108229.521 10 0 60429 41400.00000 0 3727814.214 -17331846.537 -18346635.489 10 0 60429 42300.00000 0 5011987.405 -19038162.464 -16228890.922 10 0 60429 43200.00000 0 6005118.655 -20606033.917 -13796131.819 10 0 60429 44100.00000 0 6714425.066 -21973978.043 -11095598.531 10 0 60429 45000.00000 0 7159188.184 -23085278.348 -8179719.549 10 0 60429 45900.00000 0 7369678.573 -23890357.019 -5105094.955 10 0 60429 46800.00000 0 7385621.049 -24348867.722 -1931399.076 10 0 60429 47700.00000 0 7254266.241 -24431421.152 1279776.379 10 0 60429 48600.00000 0 7028150.591 -24120870.840 4466116.243 10 0 60429 49500.00000 0 6762640.001 -23413105.108 7565789.664 10 0 60429 50400.00000 0 6513361.347 -22317311.695 10518648.178 10 0 60429 51300.00000 0 6333630.717 -20855703.630 13267390.836 10 0 60429 52200.00000 0 6271987.297 -19062717.405 15758673.831 10 0 60429 53100.00000 0 6369937.299 -16983716.515 17944143.221 10 0 60429 54000.00000 0 6660003.425 -14673253.980 19781370.990 10 0 60429 54900.00000 0 7164162.520 -12192965.707 21234676.628 10 0 60429 55800.00000 0 7892737.738 -9609181.828 22275818.628 10 0 60429 56700.00000 0 8843792.605 -6990354.714 22884542.844 10 0 60429 57600.00000 0 10003053.343 -4404409.832 23048977.299 10 0 60429 58500.00000 0 11344363.843 -1916128.863 22765865.860 10 0 60429 59400.00000 0 12830655.421 415327.014 22040636.135 10 0 60429 60300.00000 0 14415391.978 2538651.408 20887299.939 10 0 60429 61200.00000 0 16044431.193 4412292.376 19328187.746 10 0 60429 62100.00000 0 17658224.841 6005939.003 17393521.617 10 0 60429 63000.00000 0 19194266.825 7301533.601 15120834.163 10 0 60429 63900.00000 0 20589686.764 8293767.851 12554244.120 10 0 60429 64800.00000 0 21783880.495 8990042.834 9743602.055 10 0 60429 65700.00000 0 22721066.858 9409895.344 6743522.378 10 0 60429 66600.00000 0 23352662.856 9583915.399 3612320.397 10 0 60429 67500.00000 0 23639376.607 9552201.464 410875.258 10 0 60429 68400.00000 0 23552929.236 9362419.511 -2798558.736 10 0 60429 69300.00000 0 23077332.360 9067549.003 -5953568.579 10 0 60429 70200.00000 0 22209666.620 8723412.183 -8992802.403 10 0 60429 71100.00000 0 20960327.840 8386092.305 -11857168.165 10 0 60429 72000.00000 0 19352729.956 8109351.078 -14490987.123 10 0 60429 72900.00000 0 17422476.872 7942155.500 -16843079.133 10 0 60429 73800.00000 0 15216037.801 7926419.414 -18867758.354 10 0 60429 74700.00000 0 12788981.491 8095055.787 -20525719.961 10 0 60429 75600.00000 0 10203843.165 8470422.372 -21784800.835 10 0 60429 76500.00000 0 7527713.098 9063226.547 -22620599.922 10 0 60429 77400.00000 0 4829647.203 9871935.652 -23016946.775 10 0 60429 78300.00000 0 2178007.086 10882717.780 -22966209.818 10 0 60429 79200.00000 0 -362160.407 12069915.687 -22469438.987 10 0 60429 80100.00000 0 -2731595.925 13397034.082 -21536340.463 10 0 60429 81000.00000 0 -4879050.901 14818199.183 -20185084.368 10 0 60429 81900.00000 0 -6763170.132 16280029.612 -18441949.312 10 0 60429 82800.00000 0 -8353956.637 17723840.546 -16340810.701 10 0 60429 83700.00000 0 -9633759.245 19088089.053 -13922482.611 10 0 60429 84600.00000 0 -10597743.180 20310958.379 -11233925.754 10 0 60429 85500.00000 0 -11253825.486 21332973.002 -8327336.704 99